Tracking 26922 objects as of 1-Feb-2023
HD Live streaming from Space Station
objects crossing your sky now

COSMOS 886 DEB

Track COSMOS 886 DEB now!
10-day predictions


NORAD ID: 9653
Int'l Code: 1976-126K
Perigee: 564.9 km
Apogee: 1,815.3 km
Inclination: 65.8 °
Period: 109.1 minutes
Semi major axis: 7561 km
RCS: 0.0715 m2 (small)
Launch date: December 27, 1976
Source: Commonwealth of Independent States (former USSR) (CIS)
Launch site: TYURATAM MISSILE AND SPACE COMPLEX (TTMTR)

Note: This is SATELLITE DEBRIS
Your satellite tracking list
Your tracking list is empty




NASA's NSSDC Master Catalog

Two Line Element Set (TLE):
1 09653U 76126K   23030.44201834  .00000996  00000-0  41377-3 0  9998
2 09653  65.7687 146.1981 0826839   3.9920 356.7192 13.20463728180506
Source of the keplerian elements: AFSPC